Terug naar catalogus

COSMOS 1823 DEB

ActiefLEO
NORAD 19562·DEBRIS·🇷🇺 Russia

Gelanceerd Feb 20, 1987 vanaf Plesetsk Cosmodrome

Loading…

Volgende Passages (komende 24 uur)

TLE

VerouderendSource: Space-Track

Epoch: Sep 12, 2026, 16:55 UTC

1 19562U 87020CD  26255.70498448  .00028615  00000-0  12254-1 0  9991
2 19562  74.3438 155.7340 0009222 234.1742 156.4048 14.24694830246143

Volg COSMOS 1823 DEB in realtime met AllMySat

Download on the App Store